[[[{"header":{"parameterUnit":"kt","parameterCategory":2,"dx":1,"dy":1,"la1":30.253999710083008,"la2":30.299108505249023,"lo1":-89.0895004272461,"lo2":-89.04439544677734,"nx":28,"ny":28,"refTime":"2022-10-22T21:00:00:Z","depth":0,"parameterNumber":1,"parameterNumberName":"U-component_of_WINDS"},"data":[-7.8117,-7.8281,-7.832,-7.8527,-7.8597,-7.8745,-7.881,-7.8899,-7.8981,-7.9163,-7.9275,-7.9333,-7.9431,-7.9576,-7.97,-7.9723,-7.9772,-7.9802,-7.9823,-7.9655,-7.9634,-7.9614,-7.9576,-7.9813,-7.9813,-7.999,-7.9992,-7.9993,-7.7989,-7.8059,-7.818,-7.8324,-7.8428,-7.8423,-7.8537,-7.8624,-7.8758,-7.886,-7.8973,-7.9137,-7.9273,-7.9363,-7.9501,-7.958,-7.9585,-7.9614,-7.9606,-7.9622,-7.9444,-7.9403,-7.9607,-7.9607,-7.9607,-7.9607,-7.9607,-7.9607,-7.7765,-7.7863,-7.7972,-7.8104,-7.8187,-7.8284,-7.8384,-7.8452,-7.8572,-7.8719,-7.8744,-7.8896,-7.9007,-7.9193,-7.9265,-7.9386,-7.9361,-7.9405,-7.9415,-7.9424,-7.9428,-7.9162,-7.9412,-7.9411,-7.9411,-7.9411,-7.941,0,-7.7613,-7.7639,-7.7757,-7.7888,-7.7987,-7.8092,-7.8196,-7.826,-7.8329,-7.8426,-7.8569,-7.8658,-7.8835,-7.8975,-7.9113,-7.918,-7.9184,-7.9191,-7.9221,-7.9207,-7.9178,-7.9192,-7.8898,-7.9182,-7.918,-7.9179,-7.9178,-7.9177,-7.7387,-7.7498,-7.7632,-7.771,-7.7776,-7.7903,-7.7986,-7.8039,-7.8125,-7.8262,-7.8346,-7.8487,-7.8602,-7.8827,-7.8906,-7.9039,-7.9041,-7.9145,-7.9061,-7.9045,-7.9039,-7.9031,-7.9041,-7.9158,-7.9161,-7.9163,-7.9164,0,-7.7256,-7.7319,-7.7504,-7.7626,-7.766,-7.7773,-7.7878,-7.7979,-7.8034,-7.8181,-7.8219,-7.8305,-7.8446,-7.8509,-7.8683,-7.8711,-7.8899,-7.8901,-7.8861,-7.8863,-7.8959,-7.8948,-7.9269,-7.9312,-7.9071,-7.9074,-7.9076,0,-7.7087,-7.7231,-7.7316,-7.742,-7.7582,-7.763,-7.7789,-7.7852,-7.7947,-7.8063,-7.8078,-7.8187,-7.825,-7.8369,-7.8411,-7.8577,-7.8611,-7.8641,-7.865,-7.8638,-7.8633,-7.8681,-7.8668,-7.867,-7.8668,-7.8666,-7.8665,0,-7.6872,-7.7088,-7.7257,-7.7316,-7.7461,-7.754,-7.7604,-7.771,-7.7792,-7.7909,-7.7962,-7.8096,-7.8168,-7.8272,-7.8323,-7.8264,-7.8529,-7.8458,-7.8559,-7.8558,-7.8611,-7.8606,-7.8878,-7.8663,-7.8662,-7.8662,-7.8661,0,-7.6744,-7.6859,-7.7096,-7.7216,-7.727,-7.7383,-7.7515,-7.7626,-7.7738,-7.7771,-7.7864,-7.788,-7.8031,-7.7956,-7.8165,-7.8072,-7.8143,-7.8187,-7.8195,-7.8209,-7.8121,-7.8261,-7.8517,-7.8544,-7.8227,-7.8223,-7.822,0,-7.6479,-7.6735,-7.6777,-7.7002,-7.7128,-7.7133,-7.726,-7.7358,-7.7412,-7.7528,-7.7589,-7.7721,-7.7678,-7.7728,-7.7824,-7.7891,-7.8012,-7.7877,-7.8042,-7.8047,-7.8007,-7.8245,-7.8264,-7.8455,-7.8175,-7.8179,-7.8183,0,-7.628,-7.6454,-7.6491,-7.6559,-7.6697,-7.6803,-7.6949,-7.709,-7.7163,-7.7274,-7.7396,-7.7586,-7.756,-7.7642,-7.7669,-7.7766,-7.7932,-7.7725,-7.7728,-7.7757,-7.8158,-7.8176,-7.8208,-7.7929,-7.7935,-7.7939,-7.8147,0,-7.6066,-7.6203,-7.6307,-7.6458,-7.6551,-7.6696,-7.6759,-7.6848,-7.6863,-7.6916,-7.7099,-7.7197,-7.7341,-7.7395,-7.7412,-7.7613,-7.7588,-7.756,-7.7487,-7.7644,-7.7714,-7.7742,-7.7378,-7.7377,-7.7375,-7.7374,0,0,-7.5795,-7.5992,-7.6033,-7.6175,-7.6254,-7.6257,-7.6405,-7.6484,-7.6642,-7.6697,-7.6658,-7.6937,-7.7019,-7.7233,-7.7287,-7.7347,-7.7388,-7.7331,-7.757,-7.7591,-7.7612,-7.7685,-7.7714,-7.7371,-7.7371,-7.737,-7.737,0,-7.5729,-7.5811,-7.5957,-7.604,-7.6163,-7.6212,-7.6247,-7.637,-7.6411,-7.659,-7.6589,-7.6707,-7.6929,-7.7014,-7.7086,-7.7308,-7.7299,-7.7348,-7.7444,-7.7553,-7.7576,-7.7597,-7.7674,-7.7701,-7.7366,-7.7367,-7.7367,0,-7.5542,-7.5632,-7.5709,-7.5891,-7.5972,-7.6102,-7.6043,-7.6184,-7.6281,-7.6276,-7.6454,-7.6517,-7.6637,-7.6832,-7.6923,-7.6889,-7.7214,-7.7124,-7.7135,-7.7145,-7.7254,-7.7282,-7.7307,-7.6976,-7.6974,-7.6973,0,0,-7.5475,-7.5603,-7.5715,-7.5881,-7.5932,-7.6007,-7.6083,-7.6105,-7.6212,-7.6254,-7.6334,-7.6439,-7.6568,-7.6652,-7.6777,-7.6984,-7.7012,-7.7073,-7.7092,-7.7107,-7.7124,-7.7237,-7.7265,-7.6967,-7.6967,-7.6966,0,0,-7.5444,-7.5579,-7.5575,-7.5776,-7.5877,-7.5998,-7.6098,-7.6096,-7.6214,-7.6204,-7.625,-7.628,-7.6464,-7.6526,-7.6436,-7.6752,-7.668,-7.6703,-7.6704,-7.6728,-7.6746,-7.6726,-7.6387,0,0,0,0,0,-7.5407,-7.5562,-7.5557,-7.56,-7.583,-7.6001,-7.6031,-7.6071,-7.6018,-7.6096,-7.6163,-7.6149,-7.6486,-7.6408,-7.645,-7.6549,-7.6887,-7.6901,-7.6914,-7.6965,-7.699,-7.701,0,0,0,0,0,0,-7.5424,-7.5476,-7.5553,-7.568,-7.5732,-7.5996,-7.5915,-7.5931,-7.6011,-7.6005,-7.6136,-7.6153,-7.6191,-7.6389,-7.6427,-7.6519,-7.6374,-7.6893,-7.6904,-7.6915,-7.6973,-7.6993,-7.7011,0,0,0,0,0,-7.5438,-7.548,-7.5838,-7.5678,-7.5723,-7.5814,-7.591,-7.5922,-7.5985,-7.6087,-7.6103,-7.6008,-7.6192,-7.6227,-7.6411,-7.6501,-7.6348,-7.6362,-7.69,-7.691,-7.6918,-7.6983,0,0,0,0,0,0,-7.5448,-7.5493,-7.5848,-7.5863,-7.5622,-7.58,-7.5829,-7.5914,-7.6062,-7.6079,-7.596,-7.5954,-7.6196,-7.6222,-7.6248,-7.6493,-7.6327,-7.6342,-7.635,-7.6908,-7.6915,-7.6922,0,0,0,0,0,0,-7.547,-7.5506,-7.5856,-7.5782,-7.5789,-7.5787,-7.5813,-7.5975,-7.6064,-7.5926,-7.5926,-7.5955,-7.6156,-7.6219,-7.624,-7.6492,-7.6311,-7.6325,-7.6334,-7.634,-7.6914,-7.6919,0,0,0,0,0,0,-7.5486,-7.5516,-7.5778,-7.5784,-7.579,-7.5965,-7.5931,-7.6165,-7.6,-7.592,-7.5986,-7.598,-7.6154,-7.6175,-7.6234,-7.6477,-7.6488,-7.6312,-7.6321,-7.6327,-7.6332,0,0,0,0,0,0,0,-7.5499,-7.5285,-7.5757,-7.5786,-7.5791,-7.6004,-7.6009,-7.6013,-7.5999,-7.5993,-7.5988,-7.5983,-7.6234,-7.6249,-7.6264,-7.6466,0,0,-7.631,-7.6317,0,0,0,0,0,0,0,0,-7.5273,-7.5282,-7.5757,-7.576,-7.5764,-7.6005,-7.6008,-7.6012,-7.5998,-7.5993,-7.5989,-7.5985,-7.6238,-7.625,-7.6262,0,0,0,0,0,0,0,0,0,0,0,0,0,0,0,-7.5758,-7.576,0,-7.6006,-7.6008,-7.6011,-7.5997,-7.5993,-7.599,-7.5986,-7.6241,-7.6251,-7.6261,0,0,0,0,0,0,0,0,0,0,0,0,0,0,0,0,0,0,0,0,0,0,0,0,0,0,0,0,0,0,0,0,0,0,0,0,0,0,0,0,0,0,0,0,0,0,0,0,0,0,0,0,0,0,0,0,0,0,0,0,0,0,0,0,0,0,0,0,0]}],[{"header":{"parameterUnit":"kt","parameterCategory":2,"dx":1,"dy":1,"la1":30.253999710083008,"la2":30.299108505249023,"lo1":-89.0895004272461,"lo2":-89.04439544677734,"nx":28,"ny":28,"refTime":"2022-10-22T21:00:00:Z","depth":0,"parameterNumber":2,"parameterNumberName":"V-component_of_WINDS"},"data":[9.7597,9.7696,9.7686,9.7794,9.7802,9.7872,9.7893,9.7919,9.7936,9.8017,9.8061,9.8058,9.8067,9.8115,9.816,9.8156,9.8175,9.8221,9.8208,9.8019,9.7992,9.7966,9.794,9.8226,9.8227,9.8404,9.8405,9.8407,9.7464,9.7474,9.7528,9.7571,9.7617,9.7567,9.7597,9.7637,9.77,9.7722,9.7764,9.7833,9.7885,9.7878,9.7925,9.7969,9.7945,9.7982,9.7976,9.7978,9.7777,9.775,9.8,9.8,9.8,9.8,9.8,9.8,9.7218,9.7278,9.7297,9.7354,9.7373,9.7402,9.7456,9.745,9.75,9.7549,9.7522,9.7592,9.7608,9.7656,9.7668,9.7721,9.7676,9.7711,9.7718,9.7727,9.7738,9.7482,9.7728,9.7727,9.7727,9.7726,9.7726,0,9.7032,9.7018,9.7067,9.7115,9.7155,9.7189,9.7217,9.725,9.7211,9.7254,9.7314,9.7345,9.7408,9.746,9.75,9.7503,9.7449,9.7443,9.7466,9.7478,9.7486,9.748,9.715,9.7435,9.7432,9.743,9.7429,9.7428,9.678,9.6851,9.6864,9.69,9.6912,9.6971,9.7003,9.6962,9.6997,9.7024,9.7078,9.7131,9.7171,9.7267,9.7253,9.7298,9.7271,9.7382,9.7277,9.7288,9.7269,9.7264,9.727,9.7401,9.7404,9.7407,9.7409,0,9.6638,9.6616,9.6721,9.6724,9.6727,9.6804,9.6805,9.6862,9.6847,9.6923,9.6938,9.6914,9.6972,9.694,9.6999,9.698,9.7103,9.7077,9.7097,9.7089,9.7182,9.7173,9.7495,9.7534,9.7241,9.7244,9.7246,0,9.6412,9.6507,9.6466,9.6528,9.6633,9.6588,9.6691,9.6688,9.67,9.6759,9.6695,9.6751,9.6701,9.6753,9.6725,9.6819,9.6831,9.682,9.6811,9.6824,9.6825,9.6836,9.6821,9.679,9.6789,9.6787,9.6786,0,9.619,9.6279,9.638,9.6396,9.6406,9.6455,9.6461,9.6472,9.6503,9.6537,9.6555,9.6598,9.6621,9.6654,9.6617,9.6548,9.6733,9.6629,9.6721,9.6723,9.676,9.6757,9.7055,9.6784,9.6784,9.6783,9.6782,0,9.6,9.6038,9.6189,9.6195,9.6219,9.6286,9.6325,9.6374,9.6391,9.6377,9.6403,9.6354,9.6435,9.6334,9.6445,9.6364,9.639,9.6387,9.6393,9.6394,9.628,9.6449,9.674,9.6767,9.6402,9.6399,9.6396,0,9.5751,9.5897,9.5858,9.6002,9.6064,9.5985,9.6059,9.6075,9.6062,9.6112,9.6097,9.6153,9.6071,9.6083,9.6143,9.6128,9.6234,9.6114,9.618,9.6184,9.6176,9.6444,9.6493,9.6681,9.6355,9.6359,9.6362,0,9.5554,9.5564,9.5592,9.5607,9.5621,9.5672,9.5756,9.5801,9.5836,9.5861,9.5928,9.6007,9.5947,9.5968,9.593,9.5994,9.6161,9.592,9.5919,9.5962,9.6332,9.6378,9.641,9.6122,9.6127,9.6131,9.633,0,9.5269,9.5337,9.5413,9.5447,9.5481,9.5569,9.5532,9.5573,9.5534,9.5517,9.5616,9.5617,9.566,9.5688,9.5649,9.5806,9.5773,9.5708,9.5602,9.5781,9.5845,9.5871,9.551,9.5507,9.5504,9.5502,0,0,9.5034,9.513,9.5082,9.5161,9.5186,9.51,9.5197,9.5211,9.524,9.5259,9.5201,9.531,9.5313,9.5436,9.5489,9.5507,9.553,9.5468,9.5697,9.5719,9.5739,9.5809,9.5837,9.5497,9.5496,9.5495,9.5494,0,9.4921,9.4929,9.5026,9.5039,9.5055,9.5032,9.5056,9.5056,9.5048,9.5145,9.5069,9.5123,9.5211,9.5223,9.5241,9.5455,9.5392,9.5472,9.5598,9.567,9.5696,9.5719,9.5792,9.582,9.5487,9.5488,9.5488,0,9.4717,9.4718,9.476,9.4814,9.4822,9.4887,9.4769,9.4842,9.4889,9.4785,9.4881,9.4876,9.4889,9.5011,9.5064,9.5011,9.5267,9.518,9.5196,9.5199,9.5267,9.5298,9.5325,9.4962,9.496,9.4958,0,0,9.4623,9.4686,9.467,9.4786,9.4797,9.4763,9.4793,9.4755,9.4769,9.4775,9.4766,9.4781,9.4831,9.4864,9.4909,9.5049,9.5046,9.5117,9.5141,9.5162,9.5176,9.5249,9.528,9.4952,9.4952,9.4952,0,0,9.4576,9.4564,9.4521,9.4651,9.4668,9.4658,9.4729,9.4676,9.4712,9.4696,9.4634,9.4635,9.4748,9.4745,9.4665,9.487,9.4767,9.4785,9.4867,9.4897,9.4922,9.4918,9.454,0,0,0,0,0,9.4439,9.4566,9.4527,9.4543,9.4607,9.468,9.4688,9.464,9.4568,9.4626,9.461,9.454,9.4689,9.4617,9.4633,9.472,9.4871,9.4885,9.4899,9.5037,9.5069,9.5097,0,0,0,0,0,0,9.4445,9.4465,9.4524,9.452,9.4534,9.4675,9.4543,9.4534,9.4561,9.4546,9.4546,9.454,9.4499,9.4606,9.4621,9.4705,9.4535,9.4876,9.4889,9.49,9.5048,9.5075,9.5097,0,0,0,0,0,9.4449,9.4465,9.4581,9.4518,9.453,9.4496,9.4538,9.4529,9.4549,9.4522,9.4514,9.451,9.4503,9.4512,9.4614,9.4699,9.4524,9.453,9.4884,9.4894,9.4903,9.5061,0,0,0,0,0,0,9.4453,9.4456,9.4582,9.4583,9.4465,9.4487,9.4489,9.4525,9.4521,9.4515,9.4482,9.4471,9.4507,9.4513,9.4521,9.47,9.4516,9.4521,9.4525,9.4892,9.4899,9.4906,0,0,0,0,0,0,9.4448,9.4459,9.4583,9.4519,9.4513,9.4479,9.4481,9.456,9.4523,9.4481,9.4472,9.4477,9.4495,9.4515,9.4521,9.4646,9.4509,9.4514,9.4518,9.4521,9.4898,9.4904,0,0,0,0,0,0,9.4451,9.4461,9.4519,9.4514,9.4509,9.4525,9.4548,9.4615,9.4471,9.4483,9.4456,9.445,9.4499,9.4503,9.4521,9.4645,9.4646,9.4509,9.4513,9.4516,9.4517,0,0,0,0,0,0,0,9.4454,9.4403,9.4572,9.451,9.4505,9.46,9.4601,9.4601,9.447,9.4464,9.4458,9.4453,9.4477,9.4483,9.4489,9.4644,0,0,9.4508,9.4511,0,0,0,0,0,0,0,0,9.4398,9.4401,9.4572,9.4572,9.4572,9.46,9.4601,9.4601,9.4469,9.4464,9.4459,9.4455,9.4478,9.4483,9.4489,0,0,0,0,0,0,0,0,0,0,0,0,0,0,0,9.4572,9.4572,0,9.46,9.4601,9.4601,9.4468,9.4464,9.446,9.4457,9.448,9.4484,9.4488,0,0,0,0,0,0,0,0,0,0,0,0,0,0,0,0,0,0,0,0,0,0,0,0,0,0,0,0,0,0,0,0,0,0,0,0,0,0,0,0,0,0,0,0,0,0,0,0,0,0,0,0,0,0,0,0,0,0,0,0,0,0,0,0,0,0,0,0,0]}]]]